Location: Praha
(50.0830°N, 14.4670°E)
Time: 03:27:05
(UTC+02:00)

ISS - Pass Details

Date: 01 July 2020
Orbit: 417 x 421 km, 51.6° (Epoch: 08 July)

Event Time Altitude Azimuth Distance (km) Brightness Sun altitude
Exits shadow 04:07:34 - 210° (SSW) 1,621 -1.4 -6.5°
Reaches altitude 10° 04:07:55 10° 207° (SSW) 1,490 -1.6 -6.5°
Maximum altitude 04:10:51 28° 146° (SSE) 810 -2.4 -6.2°
Drops below altitude 10° 04:13:47 10° 85° (E) 1,497 -0.2 -5.9°
Sets 04:16:03 0° 74° (ENE) 2,364 1.2 -5.6°
